MPEC 2008-C89 : 2008 CR116
The following Minor Planet Electronic Circular may be linked-to from your own Web pages, but must not otherwise be redistributed electronically.A form allowing access to any MPEC is at the bottom of this page.


M.P.E.C. 2008-C89 Issued 2008 Feb. 13, 16:19 UT The Minor Planet Electronic Circulars contain information on unusual minor planets and routine data on comets. They are published on behalf of Commission 20 of the International Astronomical Union by the Minor Planet Center, Smithsonian Astrophysical Observatory, Cambridge, MA 02138, U.S.A. Prepared using the Tamkin Foundation Computer Network MPC@CFA.HARVARD.EDU URL http://www.cfa.harvard.edu/iau/mpc.html ISSN 1523-6714 2008 CR116 Observations: K08CB6R* C2008 02 11.34140 12 18 25.88 +44 00 35.1 18.4 V EC089703 K08CB6R C2008 02 11.34894 12 18 22.96 +44 00 03.6 18.2 V EC089703 K08CB6R C2008 02 11.35647 12 18 19.98 +43 59 32.2 18.5 V EC089703 K08CB6R C2008 02 11.36397 12 18 17.06 +43 59 00.9 18.3 V EC089703 K08CB6R C2008 02 11.84347 12 15 18.66 +43 23 34.9 18.1 R EC089B04 K08CB6R C2008 02 11.84742 12 15 17.12 +43 23 18.0 18.1 R EC089B04 K08CB6R C2008 02 11.85177 12 15 15.50 +43 22 58.9 17.9 R EC089B04 K08CB6R C2008 02 11.85573 12 15 13.95 +43 22 42.0 17.8 R EC089B04 K08CB6R C2008 02 11.86100 12 15 11.96 +43 22 19.0 17.9 R EC089B04 K08CB6R C2008 02 11.92398 12 14 47.42 +43 17 43.9 18.1 R EC089143 K08CB6R C2008 02 11.92603 12 14 46.55 +43 17 27.3 17.8 V EC089J66 K08CB6R C2008 02 11.92823 12 14 45.69 +43 17 17.6 17.5 V EC089J66 K08CB6R C2008 02 11.92999 12 14 45.08 +43 17 17.3 18.0 R EC089143 K08CB6R C2008 02 11.93043 12 14 44.86 +43 17 08.1 17.8 V EC089J66 K08CB6R C2008 02 11.93262 12 14 43.94 +43 16 58.0 18.0 V EC089J66 K08CB6R C2008 02 11.93480 12 14 43.10 +43 16 48.4 17.9 V EC089J66 K08CB6R C2008 02 11.93613 12 14 42.67 +43 16 50.4 18.1 R EC089143 K08CB6R C2008 02 11.93700 12 14 42.28 +43 16 39.4 17.9 V EC089J66 K08CB6R C2008 02 11.94726 12 14 38.07 +43 15 59.0 18.1 V EC089A74 K08CB6R C2008 02 11.94943 12 14 37.23 +43 15 49.0 18.1 V EC089A74 K08CB6R C2008 02 11.95231 12 14 36.08 +43 15 36.1 18.3 V EC089A74 K08CB6R C2008 02 11.95520 12 14 34.94 +43 15 23.4 17.8 V EC089A74 K08CB6R C2008 02 11.95643 12 14 34.28 +43 15 20.5 EC089246 K08CB6R C2008 02 11.95710 12 14 34.08 +43 15 17.0 EC089246 K08CB6R C2008 02 11.95755 12 14 33.93 +43 15 15.7 EC089246 K08CB6R C2008 02 11.95796 12 14 33.71 +43 15 14.0 EC089246 K08CB6R C2008 02 11.95871 12 14 33.37 +43 15 10.4 EC089246 K08CB6R C2008 02 11.95881 12 14 33.54 +43 15 07.3 18.1 V EC089A74 K08CB6R C2008 02 11.95953 12 14 33.25 +43 15 04.1 18.2 V EC089A74 K08CB6R C2008 02 11.96098 12 14 32.68 +43 14 57.7 17.8 V EC089A74 K08CB6R C2008 02 11.96242 12 14 32.11 +43 14 51.4 18.1 V EC089A74 K08CB6R C2008 02 11.96603 12 14 30.67 +43 14 35.7 17.8 V EC089A74 K08CB6R C2008 02 11.97792 12 14 25.89 +43 13 47.0 EC089595 K08CB6R C2008 02 11.98551 12 14 22.85 +43 13 12.7 18.0 V EC089595 K08CB6R C2008 02 12.01005 12 14 12.76 +43 11 19.7 EC089046 K08CB6R C2008 02 12.01113 12 14 12.37 +43 11 15.3 EC089046 K08CB6R C2008 02 12.01178 12 14 12.18 +43 11 12.2 EC089046 K08CB6R C2008 02 12.01243 12 14 11.90 +43 11 09.5 EC089046 K08CB6R C2008 02 12.01307 12 14 11.55 +43 11 06.1 EC089046 K08CB6R 5C2008 02 12.17984 12 13 04.44 +42 58 13.8 17.9 R EC089012 K08CB6R 5C2008 02 12.18122 12 13 03.94 +42 58 08.6 18.5 R EC089012 K08CB6R 5C2008 02 12.18354 12 13 02.91 +42 57 55.1 18.2 R EC089012 K08CB6R 5C2008 02 12.18470 12 13 02.44 +42 57 50.5 18.1 R EC089012 K08CB6R 5C2008 02 12.18933 12 13 00.59 +42 57 28.8 18.4 R EC089012 K08CB6R 5C2008 02 12.19050 12 13 00.09 +42 57 22.8 18.2 R EC089012 K08CB6R 5C2008 02 12.19166 12 12 59.60 +42 57 17.2 17.8 R EC089012 K08CB6R 5C2008 02 12.19281 12 12 59.14 +42 57 11.6 18.3 R EC089012 K08CB6R 5C2008 02 12.19397 12 12 58.67 +42 57 06.0 18.3 R EC089012 K08CB6R 5C2008 02 12.19516 12 12 58.15 +42 57 00.3 18.2 R EC089012 K08CB6R C2008 02 12.21261 12 12 50.77 +42 55 40.5 EC089204 K08CB6R C2008 02 12.21681 12 12 49.06 +42 55 20.4 EC089204 K08CB6R C2008 02 12.22101 12 12 47.36 +42 55 00.1 17.9 R EC089204 K08CB6R C2008 02 12.33200 12 12 08.29 +42 46 32.0 18.5 R EC089854 K08CB6R C2008 02 12.33296 12 12 07.92 +42 46 27.2 18.3 R EC089854 K08CB6R C2008 02 12.33392 12 12 07.50 +42 46 22.6 18.3 R EC089854 K08CB6R 5C2008 02 12.43935212 11 23.866+42 38 01.71 18.2 R EC089673 K08CB6R 5C2008 02 12.44525512 11 21.388+42 37 33.56 EC089673 K08CB6R 5C2008 02 12.44953712 11 19.511+42 37 12.10 EC089673 K08CB6R 5C2008 02 12.45335612 11 17.913+42 36 53.72 EC089673 K08CB6R C2008 02 12.82117 12 08 53.79 +42 06 11.4 17.9 V EC089104 K08CB6R C2008 02 12.82274 12 08 53.47 +42 06 00.7 18.1 V EC089104 K08CB6R C2008 02 12.82534 12 08 52.47 +42 05 48.1 18.0 V EC089104 K08CB6R C2008 02 12.82817 12 08 51.23 +42 05 29.3 17.8 V EC089104 K08CB6R C2008 02 12.83877 12 08 46.70 +42 04 42.4 18.0 R EC089235 K08CB6R C2008 02 12.84302 12 08 44.98 +42 04 21.1 18.1 R EC089235 K08CB6R C2008 02 12.93919 12 08 05.05 +41 56 17.4 EC089J71 K08CB6R C2008 02 12.94190 12 08 03.96 +41 56 03.6 EC089J71 K08CB6R C2008 02 12.94416 12 08 03.00 +41 55 52.1 EC089J71 K08CB6R C2008 02 12.95394 12 07 58.73 +41 55 12.9 18.4 V EC089595 K08CB6R C2008 02 12.95424 12 07 58.92 +41 55 11.7 17.8 R EC089A24 K08CB6R C2008 02 12.95595 12 07 58.19 +41 55 02.5 18.0 R EC089A24 K08CB6R C2008 02 12.95766 12 07 57.47 +41 54 54.0 17.9 R EC089A24 K08CB6R C2008 02 12.95862 12 07 56.83 +41 54 50.8 18.6 V EC089595 K08CB6R C2008 02 12.95916 12 07 56.81 +41 54 46.6 17.7 R EC089A24 K08CB6R C2008 02 12.96044 12 07 56.27 +41 54 40.6 17.8 R EC089A24 K08CB6R C2008 02 12.96327 12 07 54.82 +41 54 27.2 18.4 V EC089595 K08CB6R C2008 02 12.96584 12 07 53.95 +41 54 12.2 17.9 R EC089B04 K08CB6R C2008 02 12.96833 12 07 52.89 +41 53 59.8 18.0 R EC089B04 K08CB6R C2008 02 12.97691 12 07 49.26 +41 53 16.5 17.9 R EC089B04 K08CB6R C2008 02 13.08233 12 07 03.54 +41 44 16.6 EC089046 K08CB6R C2008 02 13.08384 12 07 02.93 +41 44 08.3 EC089046 K08CB6R C2008 02 13.08459 12 07 02.60 +41 44 05.0 EC089046 K08CB6R C2008 02 13.08542 12 07 02.23 +41 44 00.1 EC089046 K08CB6R C2008 02 13.08625 12 07 01.86 +41 43 55.8 EC089046 K08CB6R C2008 02 13.08701 12 07 01.53 +41 43 52.1 EC089046 Observer details: 012 Uccle. Observer P. De Cat. 0.85-m f/2.5 Schmidt + 3Kx2K CCD. 046 Klet. Observer M. Honkova. 0.57-m f/5.2 reflector + CCD. 104 San Marcello Pistoiese. Observers L. Tesi, G. Fagioli, M. Mazzucato, F. Dolfi. Measurer L. Tesi. 0.60-m f/4 reflector + CCD. 143 Gnosca. Observer S. Sposetti. 0.40-m f/4 reflector + CCD. 204 Schiaparelli Observatory. Observer L. Buzzi. 0.60-m f/4.64 reflector + CCD. 235 CAST Observatory, Talmassons. Observer R. Ligustri. 0.35-m f/5 reflector + CCD. 246 Klet Observatory-KLENOT. Observer M. Tichy. 1.06-m KLENOT Telescope + CCD. 595 Farra d'Isonzo. Observers L. Bittesini, G. Lombardi, E. Pettarin, F. Piani. Measurer E. Pettarin. 0.30-m f/4.5 reflector + CCD. 673 Table Mountain Observatory, Wrightwood. Observer J. Young. 0.61-m f/16 Cassegrain + CCD. 703 Catalina Sky Survey. Observer R. E. Hill. Measurers E. C. Beshore, A. Boattini, G. J. Garradd, A. R. Gibbs, A. D. Grauer, R. E. Hill, R. A. Kowalski, S. M. Larson, R. H. McNaught. 0.68-m Schmidt + CCD. 854 Sabino Canyon Observatory, Tucson. Observer J. E. McGaha. 0.36-m f/10.0 Schmidt-Cassegrain + CCD. A24 New Millennium Observatory, Mozzate. Observer E. Cozzi. 0.36-m f/7.6 Schmidt-Cassegrain + CCD. A74 Bergen-Enkheim Observatory. Observer U. Suessenberger. 0.36-m f/4.6 Schmidt-Cassegrain + CCD. B04 Saint-Barthelemy Observatory. Observer A. Carbognani. 0.81-m f/7.9 reflector + CCD. J66 Kinver. Observer K. Hills. 0.41-m f/6.9 Ritchey-Chretien + CCD. J71 Willow Bank Observatory. Observer I. Griffin. 0.35-m Schmidt-Cassegrain + CCD. Orbital elements: 2008 CR116 Earth MOID = 0.1056 AU Epoch 2007 Oct. 27.0 TT = JDT 2454400.5 MPC M 280.20194 (2000.0) P Q n 0.55381734 Peri. 203.24905 -0.97707214 +0.02137642 a 1.4685600 Node 334.98126 +0.15111546 -0.63124881 e 0.2666240 Incl. 30.05874 -0.14998053 -0.77528575 P 1.78 H 20.4 G 0.15 U 8 Residuals in seconds of arc 080211 703 0.0 0.4+ 080211 A74 0.3+ 0.0 080212 673 0.1- 0.1- 080211 703 0.2+ 0.1+ 080211 A74 0.3+ 0.1+ 080212 104 (2.6- 3.3+) 080211 703 0.2- 0.0 080211 A74 0.3+ 0.5+ 080212 104 0.9+ 0.3+ 080211 703 0.0 0.1- 080211 595 0.2+ 0.3+ 080212 104 1.5+ 0.4+ 080211 B04 0.1- 0.0 080211 595 0.2+ 0.1- 080212 104 (0.5+ 4.7-) 080211 B04 0.4- 0.2+ 080212 046 0.8- 0.5- 080212 235 0.7- 0.1+ 080211 B04 0.0 0.0 080212 046 0.3- 0.0 080212 235 0.5- 0.4- 080211 B04 0.4- 0.2+ 080212 046 0.5+ 0.2- 080212 J71 0.5- 0.6+ 080211 B04 0.1- 0.1+ 080212 046 0.3+ 0.1+ 080212 J71 0.0 0.3+ 080211 143 0.4- 0.2- 080212 046 0.7- 0.4- 080212 J71 0.2- 0.1+ 080211 J66 0.0 0.0 080212 012 0.2+ 0.2+ 080212 595 0.6- 0.7- 080211 J66 0.0 0.0 080212 012 0.9+ 1.5+ 080212 A24 0.8+ 0.7+ 080211 143 0.1- 0.3- 080212 012 0.1- 1.0- 080212 A24 0.7+ 0.1+ 080211 J66 0.3+ 0.2+ 080212 012 0.1- 0.1- 080212 A24 0.8+ 0.1+ 080211 J66 0.4- 0.3- 080212 012 0.2+ 0.1+ 080212 595 0.4+ 0.6+ 080211 J66 0.3- 0.3- 080212 012 0.0 0.4- 080212 A24 0.5+ 0.2+ 080211 143 0.0 0.1- 080212 012 0.3- 0.5- 080212 A24 0.5+ 0.6+ 080211 J66 0.1+ 0.5+ 080212 012 0.2- 0.6- 080212 595 0.0 0.3+ 080211 A74 0.2- 0.4+ 080212 012 0.2- 0.7- 080212 B04 0.4- 0.2- 080211 A74 0.0 0.0 080212 012 0.6- 0.7- 080212 B04 0.5- 0.1- 080211 A74 0.1- 0.1- 080212 204 0.2+ 0.1- 080212 B04 0.3- 0.4- 080211 A74 0.0 0.0 080212 204 0.1+ 0.1- 080213 046 0.4- 0.1+ 080211 246 0.4- 0.1+ 080212 204 0.1+ 0.2- 080213 046 0.1+ 0.4- 080211 246 0.3+ 0.4- 080212 854 0.1+ 0.5+ 080213 046 0.0 0.2+ 080211 246 0.7+ 0.3+ 080212 854 0.4+ 0.1+ 080213 046 0.1- 0.4- 080211 246 0.0 0.4+ 080212 854 0.1+ 0.0 080213 046 0.3- 0.3- 080211 246 0.4- 0.1+ 080212 673 0.6+ 0.4+ 080213 046 0.3- 0.1- 080211 A74 0.3+ 0.0 080212 673 0.6+ 0.6+ 080211 A74 0.2+ 0.0 080212 673 0.2- 0.2- Ephemeris: 2008 CR116 a,e,i = 1.47, 0.27, 30 q = 1.0770 Date TT R. A. (2000) Decl. Delta r Elong. Phase V 2008 02 14 12 00.59 +40 20.7 0.160 1.115 140.3 34.5 18.1 2008 02 24 10 29.59 +11 30.4 0.107 1.096 178.1 1.7 16.0 2008 03 05 08 50.70 -27 53.7 0.128 1.084 133.3 41.7 17.7 2008 03 15 07 44.32 -44 44.7 0.197 1.078 109.8 60.3 19.2 2008 03 25 07 08.89 -50 57.9 0.276 1.078 99.6 65.8 20.1 2008 04 04 06 51.60 -53 59.5 0.352 1.085 94.4 66.8 20.7 2008 04 14 06 45.21 -55 57.6 0.422 1.099 91.6 65.8 21.1 2008 04 24 06 46.09 -57 36.7 0.483 1.119 90.4 64.0 21.3 2008 05 04 06 52.94 -59 14.7 0.535 1.144 90.3 61.9 21.5 2008 05 14 07 05.73 -61 03.3 0.576 1.173 91.1 59.5 21.7 2008 05 24 07 25.13 -63 08.9 0.609 1.206 92.7 57.1 21.8 2008 06 03 07 53.12 -65 32.5 0.634 1.241 94.9 54.5 21.9 2008 06 13 08 33.21 -68 09.0 0.654 1.278 97.6 52.0 21.9 2008 06 23 09 30.49 -70 38.4 0.672 1.317 100.5 49.4 22.0 2008 07 03 10 49.57 -72 17.7 0.692 1.356 103.4 46.8 22.0 Gareth V. Williams (C) Copyright 2008 MPC M.P.E.C. 2008-C89


Enter an MPEC number in one of the following forms:
- 1997-B01 (the full form)
- J97B01 (the packed version of the full form)
- B01 (the abbreviated form)